| time (UTC) | temp C | wind direction | speed KPH | gust KPH | rain 1hr cm | rain 24hr cm | rain mn cm | humidity % | barometer mb |
| 20260506184140 | 16 | 200 | 0.0 | 27.4 | 0.00 | 0.61 | 0.61 | 89 | 1006.2 |
| 20260506183140 | 16 | 194 | 0.0 | 14.5 | 0.00 | 0.61 | 0.61 | 89 | 1006.2 |
| 20260506182140 | 16 | 199 | 3.2 | 22.5 | 0.00 | 0.61 | 0.61 | 89 | 1006.1 |
| 20260506181140 | 16 | 222 | 0.0 | 20.9 | 0.00 | 0.61 | 0.61 | 89 | 1006.2 |
| 20260506180141 | 16 | 196 | 0.0 | 22.5 | 0.00 | 0.61 | 0.61 | 89 | 1006.2 |
| 20260506175140 | 16 | 197 | 0.0 | 29.0 | 0.00 | 0.61 | 0.61 | 90 | 1006.3 |
| 20260506174141 | 16 | 219 | 11.3 | 19.3 | 0.00 | 0.61 | 0.61 | 90 | 1006.4 |
| 20260506173140 | 16 | 184 | 0.0 | 19.3 | 0.03 | 0.61 | 0.61 | 90 | 1006.2 |
| 20260506172140 | 16 | 160 | 6.4 | 16.1 | 0.03 | 0.61 | 0.61 | 90 | 1006.5 |
| 20260506171140 | 16 | 240 | 3.2 | 22.5 | 0.05 | 0.61 | 0.61 | 90 | 1006.6 |
| 20260506165140 | 16 | 196 | 9.7 | 14.5 | 0.13 | 0.61 | 0.61 | 91 | 1006.4 |
| 20260506163140 | 16 | 148 | 8.0 | 11.3 | 0.33 | 0.58 | 0.58 | 92 | 1006.4 |
| 20260506162140 | 16 | 193 | 0.0 | 6.4 | 0.41 | 0.58 | 0.58 | 91 | 1006.7 |
| 20260506161140 | 16 | 153 | 0.0 | 9.7 | 0.41 | 0.56 | 0.56 | 90 | 1007.2 |
| 20260506160139 | 16 | 171 | 0.0 | 16.1 | 0.43 | 0.53 | 0.53 | 89 | 1007.5 |
| 20260506155139 | 16 | 167 | 0.0 | 14.5 | 0.38 | 0.48 | 0.48 | 89 | 1007.7 |
| 20260506154139 | 16 | 181 | 0.0 | 20.9 | 0.28 | 0.33 | 0.33 | 88 | 1007.8 |
| 20260506153140 | 16 | 175 | 0.0 | 11.3 | 0.23 | 0.25 | 0.25 | 88 | 1007.7 |
| 20260506151139 | 17 | 181 | 0.0 | 6.4 | 0.15 | 0.15 | 0.15 | 87 | 1007.8 |
| 20260506145139 | 17 | 177 | 0.0 | 8.0 | 0.10 | 0.10 | 0.10 | 83 | 1007.5 |
| 20260506144139 | 17 | 178 | 0.0 | 12.9 | 0.05 | 0.05 | 0.05 | 81 | 1007.7 |
| 20260506143139 | 18 | 188 | 0.0 | 14.5 | 0.03 | 0.03 | 0.03 | 78 | 1007.7 |
| 20260506142140 | 18 | 210 | 0.0 | 8.0 | 0.00 | 0.00 | 0.00 | 76 | 1007.8 |
| 20260506141139 | 19 | 200 | 0.0 | 14.5 | 0.00 | 0.00 | 0.00 | 74 | 1007.8 |
| 20260506140139 | 19 | 157 | 0.0 | 17.7 | 0.00 | 0.00 | 0.00 | 71 | 1007.6 |
| 20260506134140 | 18 | 196 | 1.6 | 20.9 | 0.00 | 0.00 | 0.00 | 74 | 1007.6 |
| 20260506132139 | 18 | 189 | 0.0 | 22.5 | 0.00 | 0.00 | 0.00 | 74 | 1007.8 |
| 20260506131139 | 18 | 192 | 0.0 | 20.9 | 0.00 | 0.00 | 0.00 | 73 | 1007.8 |
| 20260506125139 | 18 | 146 | 0.0 | 20.9 | 0.00 | 0.00 | 0.00 | 74 | 1007.9 |
| 20260506124139 | 18 | 207 | 0.0 | 16.1 | 0.00 | 0.00 | 0.00 | 75 | 1007.9 |
| 20260506123139 | 18 | 199 | 0.0 | 1.6 | 0.00 | 0.00 | 0.00 | 75 | 1007.9 |
| 20260506121139 | 18 | 193 | 0.0 | 19.3 | 0.00 | 0.00 | 0.00 | 75 | 1007.7 |
| 20260506120139 | 18 | 184 | 0.0 | 25.7 | 0.00 | 0.00 | 0.00 | 76 | 1007.8 |
| 20260506115139 | 18 | 189 | 0.0 | 11.3 | 0.00 | 0.00 | 0.00 | 76 | 1007.7 |
| 20260506114140 | 18 | 171 | 11.3 | 11.3 | 0.00 | 0.00 | 0.00 | 76 | 1007.8 |
| 20260506022137 | 22 | 200 | 0.0 | 12.9 | 0.00 | 0.00 | 0.00 | 50 | 1008.5 |
| 20260506021137 | 22 | 135 | 4.8 | 24.1 | 0.00 | 0.00 | 0.00 | 49 | 1008.4 |
| 20260506020137 | 22 | 151 | 0.0 | 20.9 | 0.00 | 0.00 | 0.00 | 48 | 1008.4 |
| 20260506015137 | 22 | 187 | 1.6 | 16.1 | 0.00 | 0.00 | 0.00 | 47 | 1008.3 |
| 20260506014137 | 23 | 147 | 0.0 | 22.5 | 0.00 | 0.00 | 0.00 | 47 | 1008.2 |
| 20260506013137 | 23 | 169 | 0.0 | 20.9 | 0.00 | 0.00 | 0.00 | 46 | 1007.9 |
| 20260506012137 | 23 | 207 | 0.0 | 24.1 | 0.00 | 0.00 | 0.00 | 45 | 1007.9 |
| 20260506011137 | 23 | 127 | 4.8 | 24.1 | 0.00 | 0.00 | 0.00 | 44 | 1007.8 |
| 20260506010137 | 23 | 192 | 0.0 | 20.9 | 0.00 | 0.00 | 0.00 | 44 | 1007.7 |
| 20260506005137 | 23 | 205 | 12.9 | 24.1 | 0.00 | 0.00 | 0.00 | 43 | 1007.7 |
| 20260506002137 | 24 | 190 | 6.4 | 22.5 | 0.00 | 0.00 | 0.00 | 44 | 1007.4 |
| 20260506001137 | 24 | 198 | 8.0 | 25.7 | 0.00 | 0.00 | 0.00 | 44 | 1007.3 |
| 20260506000137 | 24 | 152 | 6.4 | 24.1 | 0.00 | 0.00 | 0.00 | 44 | 1007.2 |
| 20260505235137 | 25 | 194 | 1.6 | 19.3 | 0.00 | 0.00 | 0.00 | 43 | 1007.1 |
| 20260505234137 | 25 | 149 | 0.0 | 17.7 | 0.00 | 0.00 | 0.00 | 41 | 1007.0 |
| 20260505233137 | 25 | 201 | 1.6 | 17.7 | 0.00 | 0.00 | 0.00 | 39 | 1007.0 |
| 20260505232137 | 25 | 213 | 3.2 | 14.5 | 0.00 | 0.00 | 0.00 | 38 | 1007.0 |
| 20260505231137 | 25 | 194 | 9.7 | 22.5 | 0.00 | 0.00 | 0.00 | 37 | 1007.0 |
| 20260505230137 | 26 | 198 | 3.2 | 17.7 | 0.00 | 0.00 | 0.00 | 36 | 1007.0 |
| 20260505225138 | 26 | 204 | 6.4 | 20.9 | 0.00 | 0.00 | 0.00 | 36 | 1006.7 |
| 20260505224137 | 26 | 218 | 6.4 | 27.4 | 0.00 | 0.00 | 0.00 | 35 | 1006.7 |
| 20260505222136 | 26 | 204 | 4.8 | 32.2 | 0.00 | 0.00 | 0.00 | 34 | 1006.7 |
| 20260505221138 | 26 | 196 | 14.5 | 27.4 | 0.00 | 0.00 | 0.00 | 34 | 1006.7 |
| 20260505220137 | 26 | 190 | 3.2 | 29.0 | 0.00 | 0.00 | 0.00 | 34 | 1006.6 |
| 20260505213137 | 27 | 211 | 1.6 | 32.2 | 0.00 | 0.00 | 0.00 | 32 | 1006.4 |
| 20260505211137 | 27 | 235 | 0.0 | 32.2 | 0.00 | 0.00 | 0.00 | 31 | 1006.3 |
| 20260505210137 | 27 | 207 | 6.4 | 38.6 | 0.00 | 0.00 | 0.00 | 30 | 1006.5 |
| 20260505204137 | 28 | 242 | 9.7 | 27.4 | 0.00 | 0.00 | 0.00 | 30 | 1006.5 |
| 20260505201136 | 28 | 217 | 4.8 | 38.6 | 0.00 | 0.00 | 0.00 | 30 | 1006.7 |
| 20260505200137 | 28 | 245 | 4.8 | 35.4 | 0.00 | 0.00 | 0.00 | 31 | 1006.7 |
| 20260505194137 | 27 | 284 | 4.8 | 27.4 | 0.00 | 0.00 | 0.00 | 30 | 1006.8 |
| 20260505193136 | 28 | 205 | 9.7 | 45.1 | 0.00 | 0.00 | 0.00 | 30 | 1006.8 |
| 20260505192137 | 28 | 197 | 0.0 | 35.4 | 0.00 | 0.00 | 0.00 | 31 | 1006.9 |
| 20260505191136 | 28 | 232 | 16.1 | 25.7 | 0.00 | 0.00 | 0.00 | 30 | 1007.1 |
| 20260505190137 | 28 | 211 | 4.8 | 24.1 | 0.00 | 0.00 | 0.00 | 32 | 1007.3 |